CYGNUS ORB-4

Last updated on Feb. 20, 2016, 5:02 p.m. UTC

1 41101U 15072A   16051.12582647 -.00641359  00000-0 -92754-2 0  9999
2 41101  51.6417 286.7845 0004032 119.2092  16.2834 15.57414652 11710
UTC
Height (km)
Latitude
Longitude
Inclination
Orbital Period
UTC large
Height (km)
Speed (km/s)
/
Latitude / Longitude
Inclination (degrees)
Orbital Period (minutes)
Azimuth
Elevation
Range (km)
Doppler Factor
iOS Compass Heading
iOS Angle

Next 30 passes for location: Hong Kong

Rise time Rise Azimuth (degrees) Set time Set Azimuth (degrees) Duration Max altitude (degrees)

No matching passes for this satellites